Location: Владивосток
(43.1151°N, 131.8856°E)
Time: 23:21:44
(UTC+10:00)

First-Move - Pass Details

Date: 07 July 2022
Orbit: 572 x 658 km, 97.6° (Epoch: 14 August)

Event Time Altitude Azimuth Distance (km) Brightness Sun altitude
Rises 04:38:06 0° 21° (NNE) 2,974 ? -9.7°
Reaches altitude 10° 04:40:30 10° 31° (NNE) 2,068 ? -9.4°
Maximum altitude 04:44:36 34° 96° (E) 1,092 ? -8.8°
Drops below altitude 10° 04:48:43 10° 161° (SSE) 2,068 ? -8.3°
Sets 04:51:06 0° 171° (S) 2,974 ? -8.0°
